GW0026 Weather Reports


Display with metric or nautical units.
time (UTC)temp
F
wind
direction
speed
MPH
gust
MPH
rain 1hr
in
rain 24hr
in
rain mn
in
humidity
%
barometer
mb
20260504050404 46 353 0.0 0.0 0.00 0.00 0.00 73 1010.0
20260504045901 45 353 0.0 0.0 0.00 0.00 0.00 74 1009.9
20260504045356 45 353 0.0 0.0 0.00 0.00 0.00 74 1009.9
20260504044853 45 353 0.0 0.0 0.00 0.00 0.00 73 1010.0
20260504044350 45 354 0.0 0.0 0.00 0.00 0.00 73 1010.0
20260504043848 45 354 0.0 0.0 0.00 0.00 0.00 72 1010.0
20260504043344 45 354 0.0 0.0 0.00 0.00 0.00 72 1010.1
20260504042842 45 354 0.0 0.0 0.00 0.00 0.00 72 1010.2
20260504042338 45 354 0.0 0.0 0.00 0.00 0.00 72 1010.4
20260504041834 44 347 0.0 0.0 0.00 0.00 0.00 72 1010.5
20260504041330 44 347 0.0 0.0 0.00 0.00 0.00 73 1010.5
20260504040827 44 347 0.0 0.0 0.00 0.00 0.00 72 1010.4
20260504040324 44 347 0.0 0.0 0.00 0.00 0.00 73 1010.5
20260504035820 44 347 0.0 0.0 0.00 0.00 0.00 72 1010.6
20260504035318 44 347 0.0 0.0 0.00 0.00 0.00 72 1010.6
20260504034815 43 347 0.0 0.0 0.00 0.00 0.00 71 1010.5
20260504034313 43 347 0.0 0.0 0.00 0.00 0.00 71 1010.4
20260504033809 42 348 0.0 0.0 0.00 0.00 0.00 72 1010.0
20260504033307 42 347 0.0 0.0 0.00 0.00 0.00 72 1010.2
20260504032803 41 347 0.0 0.0 0.00 0.00 0.00 73 1010.2
20260504032300 41 347 0.0 0.0 0.00 0.00 0.00 74 1010.0
20260504031757 41 347 0.0 0.0 0.00 0.00 0.00 73 1010.0
20260504031255 41 348 0.0 0.0 0.00 0.00 0.00 73 1010.0
20260504030750 42 348 0.0 0.0 0.00 0.00 0.00 72 1010.2
20260504030248 42 348 0.0 0.0 0.00 0.00 0.00 72 1010.2
20260504025744 42 347 0.0 0.0 0.00 0.00 0.00 70 1010.2
20260504025241 43 348 0.0 0.0 0.00 0.00 0.00 69 1010.0
20260504024738 43 348 0.0 0.0 0.00 0.00 0.00 69 1010.0
20260504024235 44 348 0.0 0.0 0.00 0.00 0.00 67 1010.0
20260504023732 44 348 0.0 0.0 0.00 0.00 0.00 66 1010.1
20260504023228 44 347 0.0 0.0 0.00 0.00 0.00 66 1010.0
20260504022724 45 347 0.0 0.0 0.00 0.00 0.00 65 1010.0
20260504022220 45 344 0.0 0.0 0.00 0.00 0.00 64 1010.1
20260504021718 45 355 0.0 0.0 0.00 0.00 0.00 63 1010.0
20260504021215 46 355 0.0 0.0 0.00 0.00 0.00 61 1010.0
20260504020712 46 10 0.0 0.0 0.00 0.00 0.00 59 1009.9
20260504020208 46 336 0.0 0.0 0.00 0.00 0.00 59 1010.0
20260504015704 45 333 0.0 0.0 0.00 0.00 0.00 58 1010.3
20260504015200 45 333 0.0 0.0 0.00 0.00 0.00 59 1010.1
20260504014656 46 334 0.0 0.0 0.00 0.00 0.00 58 1010.2
20260504014153 46 334 0.0 0.0 0.00 0.00 0.00 56 1010.1
20260504013651 47 334 0.0 0.0 0.00 0.00 0.00 55 1010.1
20260504013148 47 334 0.0 0.0 0.00 0.00 0.00 53 1010.3
20260504012645 48 334 0.0 0.0 0.00 0.00 0.00 53 1010.1
20260504012143 48 10 0.0 0.0 0.00 0.00 0.00 52 1010.0
20260504011639 49 350 0.0 0.0 0.00 0.00 0.00 50 1010.2
20260504011136 49 8 0.0 0.0 0.00 0.00 0.00 48 1010.0
20260504010632 49 336 0.0 0.0 0.00 0.00 0.00 48 1009.8
20260504010128 50 338 0.0 0.0 0.00 0.00 0.00 48 1009.8
20260504005625 50 353 0.0 1.0 0.00 0.00 0.00 47 1009.8
20260504005122 50 341 1.0 1.0 0.00 0.00 0.00 46 1009.8
20260504004620 50 332 0.0 0.0 0.00 0.00 0.00 45 1009.7
20260504004117 50 331 0.0 0.0 0.00 0.00 0.00 45 1009.5
20260504003613 50 314 1.0 1.0 0.00 0.00 0.00 44 1009.7
20260504003110 51 316 0.0 0.0 0.00 0.00 0.00 44 1009.5
20260504002606 51 36 0.0 1.0 0.00 0.00 0.00 43 1009.5
20260504002104 51 30 0.0 0.0 0.00 0.00 0.00 44 1009.3
20260504001602 51 70 1.0 1.0 0.00 0.00 0.00 43 1009.1
20260504001057 51 329 0.0 1.0 0.00 0.00 0.00 44 1009.2
20260504000555 52 15 0.0 0.0 0.00 0.00 0.00 42 1009.0
20260504000052 52 283 1.0 1.0 0.00 0.00 0.00 43 1009.0
20260503235550 52 351 1.0 1.0 0.00 0.00 0.00 42 1008.9
20260503235047 52 357 0.0 0.0 0.00 0.00 0.00 43 1008.9
20260503234545 52 4 1.0 1.0 0.00 0.00 0.00 43 1008.9
20260503234043 52 344 0.0 0.0 0.00 0.00 0.00 42 1008.7
20260503233539 53 330 0.0 0.0 0.00 0.00 0.00 41 1008.7
20260503233035 53 12 0.0 0.0 0.00 0.00 0.00 41 1008.4
20260503232532 53 351 2.0 2.0 0.00 0.00 0.00 39 1008.5
20260503232030 54 354 2.0 2.0 0.00 0.00 0.00 40 1008.2
20260503231528 54 342 1.0 2.0 0.00 0.00 0.00 39 1008.4
20260503231024 54 7 1.0 1.0 0.00 0.00 0.00 39 1008.2
20260503230521 55 351 1.0 2.0 0.00 0.00 0.00 37 1008.5
20260503230018 56 270 1.0 2.0 0.00 0.00 0.00 37 1008.3
20260503225515 55 11 1.0 2.0 0.00 0.00 0.00 36 1008.2
20260503225010 56 319 2.0 3.0 0.00 0.00 0.00 36 1008.1
20260503224508 56 351 1.0 2.0 0.00 0.00 0.00 35 1008.0
20260503224005 57 270 1.0 3.0 0.00 0.00 0.00 35 1008.1
20260503223503 57 223 1.0 2.0 0.00 0.00 0.00 33 1008.0
20260503222958 58 277 3.0 6.0 0.00 0.00 0.00 32 1008.1
20260503222457 58 231 4.0 5.0 0.00 0.00 0.00 31 1007.7
20260503221955 58 276 2.0 3.0 0.00 0.00 0.00 31 1007.8
20260503221453 58 307 2.0 3.0 0.00 0.00 0.00 31 1007.9
20260503220950 59 312 1.0 2.0 0.00 0.00 0.00 30 1007.7
20260503220446 58 337 1.0 2.0 0.00 0.00 0.00 29 1007.8
20260503215943 59 265 1.0 2.0 0.00 0.00 0.00 28 1007.4
20260503215439 59 329 1.0 2.0 0.00 0.00 0.00 28 1007.6
20260503214937 60 302 3.0 3.0 0.00 0.00 0.00 27 1007.6
20260503214435 59 18 1.0 1.0 0.00 0.00 0.00 29 1007.7
20260503213932 59 353 0.0 1.0 0.00 0.00 0.00 30 1007.6
20260503213430 59 345 1.0 1.0 0.00 0.00 0.00 30 1007.7
20260503212926 58 208 2.0 3.0 0.00 0.00 0.00 31 1007.8
20260503212424 59 334 2.0 2.0 0.00 0.00 0.00 31 1007.5
20260503211921 59 281 2.0 2.0 0.00 0.00 0.00 31 1007.6
20260503211418 59 141 0.0 1.0 0.00 0.00 0.00 34 1007.5
20260503210913 59 309 4.0 6.0 0.00 0.00 0.00 33 1007.6
20260503210411 58 345 1.0 1.0 0.00 0.00 0.00 34 1007.6
20260503205910 58 340 0.0 0.0 0.00 0.00 0.00 35 1007.5
20260503205408 58 353 2.0 2.0 0.00 0.00 0.00 34 1007.7
20260503204904 59 351 0.0 1.0 0.00 0.00 0.00 36 1007.9
20260503204402 59 292 2.0 2.0 0.00 0.00 0.00 34 1007.9
20260503203859 59 314 0.0 1.0 0.00 0.00 0.00 37 1007.9
20260503203356 58 42 1.0 2.0 0.00 0.00 0.00 35 1007.9
20260503202853 57 79 1.0 2.0 0.00 0.00 0.00 35 1008.1
20260503202351 57 287 1.0 1.0 0.00 0.00 0.00 39 1008.3
20260503201849 57 46 1.0 1.0 0.00 0.00 0.00 35 1008.2
20260503201346 56 74 1.0 1.0 0.00 0.00 0.00 39 1008.3
20260503200843 56 2 1.0 1.0 0.00 0.00 0.00 38 1008.6
20260503200339 57 338 0.0 1.0 0.00 0.00 0.00 39 1008.5
20260503195836 56 131 1.0 1.0 0.00 0.00 0.00 36 1008.4
20260503195333 54 345 2.0 3.0 0.00 0.00 0.00 39 1008.4
20260503194830 55 178 1.0 2.0 0.00 0.00 0.00 38 1008.8
20260503194326 56 72 1.0 1.0 0.00 0.00 0.00 38 1008.6
20260503193822 55 120 2.0 3.0 0.00 0.00 0.00 40 1008.7
20260503193318 55 326 0.0 1.0 0.00 0.00 0.00 39 1008.6
20260503192815 56 40 3.0 3.0 0.00 0.00 0.00 38 1008.9
20260503192310 54 16 0.0 0.0 0.00 0.00 0.00 39 1009.0
20260503191806 54 253 2.0 3.0 0.00 0.00 0.00 40 1009.0
20260503191303 54 51 3.0 3.0 0.00 0.00 0.00 39 1009.0
20260503190800 55 354 1.0 1.0 0.00 0.00 0.00 40 1008.9
20260503190257 55 303 1.0 2.0 0.00 0.00 0.00 41 1009.1
20260503185754 54 342 2.0 2.0 0.00 0.00 0.00 40 1009.2
20260503185250 55 284 1.0 1.0 0.00 0.00 0.00 41 1009.2
20260503184750 54 26 0.0 0.0 0.00 0.00 0.00 41 1009.2
20260503184247 53 315 1.0 1.0 0.00 0.00 0.00 41 1009.2
20260503183742 53 223 1.0 2.0 0.00 0.00 0.00 41 1009.3
20260503183240 53 85 0.0 1.0 0.00 0.00 0.00 41 1009.4
20260503182738 53 18 0.0 0.0 0.00 0.00 0.00 43 1009.4
20260503182237 54 10 1.0 1.0 0.00 0.00 0.00 42 1009.4
20260503181733 54 327 1.0 1.0 0.00 0.00 0.00 42 1009.4
20260503181230 55 281 1.0 2.0 0.00 0.00 0.00 40 1009.6
20260503180726 54 300 1.0 2.0 0.00 0.00 0.00 42 1009.4
20260503180225 53 340 0.0 1.0 0.00 0.00 0.00 43 1009.5
20260503175721 52 153 2.0 5.0 0.00 0.00 0.00 44 1009.6
20260503175219 53 40 1.0 2.0 0.00 0.00 0.00 42 1009.6
20260503174715 53 349 1.0 2.0 0.00 0.00 0.00 44 1009.7
20260503174213 53 225 1.0 1.0 0.00 0.00 0.00 46 1009.9
20260503173708 53 240 1.0 2.0 0.00 0.00 0.00 42 1009.8
20260503173204 52 32 0.0 0.0 0.00 0.00 0.00 46 1009.8
20260503172701 53 298 1.0 1.0 0.00 0.00 0.00 43 1009.9
20260503172158 53 320 1.0 1.0 0.00 0.00 0.00 42 1009.7
20260503171654 53 68 1.0 1.0 0.00 0.00 0.00 41 1009.6
20260503171152 53 330 1.0 1.0 0.00 0.00 0.00 42 1009.8
20260503170649 53 177 2.0 3.0 0.00 0.00 0.00 41 1010.0
20260503170145 53 244 1.0 1.0 0.00 0.00 0.00 43 1009.7
20260503160107 52 318 0.0 1.0 0.00 0.00 0.00 44 1010.0
20260503150537 50 277 1.0 1.0 0.00 0.00 0.00 44 1010.4
20260503130926 48 357 1.0 1.0 0.00 0.00 0.00 60 1010.7
20260503130424 48 332 0.0 0.0 0.00 0.00 0.00 60 1010.6
20260503110823 40 347 0.0 0.0 0.00 0.00 0.00 85 1010.1
20260503110320 40 345 0.0 0.0 0.00 0.00 0.00 86 1010.4
20260503100246 38 0 0.0 0.0 0.00 0.00 0.00 88 1010.1
20260503090206 37 348 0.0 0.0 0.00 0.00 0.00 87 1010.0
20260503081636 38 358 0.0 0.0 0.00 0.00 0.00 84 1010.4
20260503081133 38 358 0.0 0.0 0.00 0.00 0.00 84 1010.5
20260503080629 37 0 0.0 0.0 0.00 0.00 0.00 83 1010.5
20260503080126 37 3 0.0 0.0 0.00 0.00 0.00 84 1010.7